www.pogodaiklimat.ru

Погода и климат >> Архив погоды >> Колумбия >> Barranquilla


ПОГОДА в Barranquilla

  • Прогноз погоды в Barranquilla
  • Монитор погоды в Barranquilla
  • Климат города

АРХИВ ПОГОДЫ в Barranquilla

Время (UTC), дата Ветер
(напр.,м/с)
 
Видим.   Явления Облачность Т
(С)
Тd
(С)
f
(%)
Тe
(С)
Тes
(С)
Комфортность P
(гПа)
Po
(гПа)
Тmin
(С)
Tmax
(С)
R
(мм)
R24
(мм)
S
(см)
00 14.09 С 3 10 км мгла 10/4 450 м
[St As op Cs]
+27.1 +27.1 100 +43 +43 опасность
перегрева
1008.4 1004.9 +33.1
03 14.09 С 6 10 км мгла 10/6 450 м
[St As op]
+27.9 +25.2 85 +40 +40 очень
душно
1010.4 1006.9
06 14.09 С 3 10 км мгла 10/4 360 м
[St Ac trans Cs]
+27.4 +26.5 95 +42 +42 опасность
перегрева
1009.1 1005.6
09 14.09 С 2 10 км мгла 10/5 360 м
[St Cs]
+26.0 +26.0 100 +39 +39 очень
душно
1008.8 1005.3
12 14.09 СВ 3 8000 м туман на расстоянии 10/8 200 м
[St Cs]
+25.9 +25.5 98 +38 +38 очень
душно
1009.9 1006.4 +25.8
15 14.09 В 4 10 км мгла 8/6 450 м
[St Ci sp]
+29.6 +26.7 84 +46 +50 опасность
перегрева
1011.0 1007.5
18 14.09 В 3 10 км мгла 8/5 450 м
[Sc diur, vesp Cs]
+32.0 +26.0 71 +48 +55 опасность
перегрева
1008.7 1005.2
21 14.09 З 4 10 км осадки на расстоянии 9/8 360 м
[Sc diur, vesp Cs]
+27.4 +25.0 87 +39 +40 очень
душно
1007.4 1003.9
00 15.09 С 2 10 км мгла 8/4 450 м
[Sc diur, vesp Cs]
+27.3 +25.8 92 +41 +41 опасность
перегрева
1008.9 1005.4 +32.5
03 15.09 С 3 10 км мгла 5/3 450 м
[Sc Ci ing]
+27.0 +25.7 93 +40 +40 очень
душно
1010.1 1006.6
06 15.09 Ю 1 1000 м туман 5/4 240 м
[St Cs]
+24.2 +24.2 100 +33 +33 очень
душно
1009.1 1005.6
09 15.09 СВ 1 10 км дымка {туман} 6/6 360 м
[St Ci sp]
+25.2 +24.8 98 +36 +36 очень
душно
1008.6 1005.1
12 15.09 ЮВ 3 3000 м туман местами 9/6 100 м
[St Cs]
+25.7 +25.4 98 +37 +38 очень
душно
1009.7 1006.2 +24.2
15 15.09 Ю 2 12 км мгла 9/5 360 м
[Sc diur, vesp Cs]
+28.6 +27.0 91 +45 +52 опасность
перегрева
1011.1 1007.6
18 15.09 Ю 3 10 км мгла 9/5 450 м
[Cu med, cong Cs]
+32.4 +25.2 66 +46 +53 опасность
перегрева
1008.5 1005.0
21 15.09 З 2 8000 м осадки на расстоянии {гроза, морось} 9/1 450 м
[Cb cap Cs]
+22.9 +22.5 98 +31 +35 очень
душно
1007.4 1003.9
00 16.09 З 2 10 км мгла {гроза} 10/4 450 м
[Sc diur, vesp Ac As Cs]
+23.9 +23.9 100 +33 +33 очень
душно
1009.1 1005.6 +33.0
03 16.09 ЮЗ 1 10 км мгла 10/4 240 м
[Frnb Ac trans Cs]
+23.4 +23.4 100 +33 +33 очень
душно
1010.9 1007.4
06 16.09 З 2 10 км мгла 10/5 240 м
[Frnb Ac trans Cs]
+24.0 +24.0 100 +33 +33 очень
душно
1010.5 1007.0
12 16.09 Ю 4 10 км мгла 10/1 300 м
[Frnb As op]
+23.2 +23.2 100 +33 +33 очень
душно
1011.8 1008.3 +22.0 46
15 16.09 Ю 5 10 км мгла 10/3 450 м
[Sc As op Cs]
+26.6 +23.1 81 +36 +39 очень
душно
1012.7 1009.2
21 16.09 Ю 2 12 км мгла 10/1 450 м
[Cu hum As op Cs]
+28.2 +25.0 83 +41 +43 опасность
перегрева
1009.2 1005.7
00 17.09 З 1 12 км мгла 9/4 450 м
[Sc diur, vesp Ac trans Cs]
+25.4 +25.4 100 +37 +37 очень
душно
1010.8 1007.3 +28.4
03 17.09 З 2 12 км мгла 10/4 450 м
[St Ac trans Cs]
+24.1 +24.1 100 +33 +33 очень
душно
1012.5 1009.0
06 17.09 СЗ 2 10 км мгла 4/4 450 м
[St]
+23.8 +23.5 98 +32 +32 очень
душно
1010.8 1007.3
12 17.09 С 4 10 км мгла 5/3 200 м
[St Ci fib]
+26.7 +26.7 100 +41 +42 опасность
перегрева
1010.2 1006.7 +23.5
15 17.09 штиль 0 10 км мгла 5/3 450 м
[Cu hum Ci fib]
+31.0 +25.4 72 +45 +60 опасность
перегрева
1010.9 1007.4
18 17.09 СВ 6 10 км мгла 5/4 450 м
[Cu hum Ac trans Ci fib]
+32.2 +26.1 70 +48 +52 опасность
перегрева
1008.9 1005.4
21 17.09 СВ 5 10 км мгла 4/3 450 м
[Cu hum Ci sp]
+31.0 +26.2 76 +47 +49 опасность
перегрева
1007.3 1003.8
00 18.09 С 5 10 км мгла 10/4 360 м
[St Cs]
+28.2 +28.2 100 +47 +47 опасность
перегрева
1008.0 1004.5 +33.5
03 18.09 СЗ 2 10 км мгла 4/4 300 м
[St Cs]
+28.0 +28.0 100 +46 +46 опасность
перегрева
1010.1 1006.6
09 18.09 нст 1 10 км дымка {туман} 10/5 300 м
[St Cs]
+25.6 +25.6 100 +37 +37 очень
душно
1008.0 1000.5
12 18.09 Ю 2 2000 м дымка {туман} 10/4 300 м
[St Cs]
+26.4 +26.4 100 +40 +41 очень
душно
1009.3 1005.8 +25.4
15 18.09 Ю 1 10 км мгла {туман} 6/4 450 м
[Sc diur, vesp Ci sp]
+31.4 +25.8 72 +46 +57 опасность
перегрева
1009.9 1006.4
18 18.09 С 5 12 км мгла 10/5 450 м
[Cu med, cong Ac trans Ci sp]
+32.0 +26.6 73 +49 +51 опасность
перегрева
1007.6 1004.1
21 18.09 С 3 12 км мгла 10/5 450 м
[Sc diur, vesp Ac As Cs]
+31.0 +26.5 77 +47 +49 опасность
перегрева
1005.7 1002.2
00 19.09 С 3 10 км мгла {гроза} 9/4 360 м
[Sc diur, vesp Ac As Cs]
+27.2 +24.6 86 +39 +39 очень
душно
1007.3 1003.8 +33.2
03 19.09 С 5 10 км мгла 10/4 450 м
[St Ac As]
+28.6 +27.0 91 +45 +45 опасность
перегрева
1009.1 1005.6
06 19.09 С 3 10 км мгла 8/3 300 м
[St Ac As Ci fib]
+28.1 +27.2 95 +45 +45 опасность
перегрева
1007.6 1004.1
09 19.09 Ю 1 10 км туман на расстоянии 9/1 450 м
[St As op Cs]
+26.0 +26.0 100 +39 +39 очень
душно
1006.9 1003.4
12 19.09 штиль 0 3000 м дымка 9/9 200 м
[St]
+26.5 +26.5 100 +40 +41 очень
душно
1008.8 1005.3 +25.9
15 19.09 ЮВ 1 12 км мгла 9/4 360 м
[St Cs]
+30.5 +26.5 79 +47 +56 опасность
перегрева
1009.7 1006.2
18 19.09 С 6 10 км мгла 10/5 360 м
[St Cs]
+32.6 +26.0 68 +48 +51 опасность
перегрева
1006.7 1003.2
21 19.09 С 6 10 км мгла 10/4 360 м
[Cb cap Ac trans Cs]
+30.5 +28.0 87 +51 +51 опасность
перегрева
1005.7 1002.2
00 20.09 С 2 10 км мгла 4/4 450 м
[St]
+28.9 +27.2 91 +46 +46 опасность
перегрева
1007.2 1003.7 +32.8
03 20.09 С 5 10 км мгла 4/4 450 м
[St]
+28.5 +27.4 94 +46 +46 опасность
перегрева
1009.1 1005.6
06 20.09 С 3 10 км мгла 3/1 450 м
[St Ac trans]
+27.8 +27.8 100 +45 +45 опасность
перегрева
1007.5 1004.0
09 20.09 З 2 10 км мгла 5/5 360 м
[St]
+26.6 +25.3 93 +39 +39 очень
душно
1007.4 1003.9
12 20.09 ЮВ 3 3000 м дымка 10/6 240 м
[St Cs]
+26.9 +26.9 100 +42 +42 опасность
перегрева
1009.6 1006.1 +26.2
15 20.09 ЮВ 4 10 км мгла {туман} 9/4 360 м
[St Cs]
+30.4 +26.3 79 +46 +52 опасность
перегрева
1010.3 1006.8
18 20.09 СВ 6 10 км мгла 8/4 450 м
[Sc diur, vesp Cs]
+31.8 +26.8 75 +49 +53 опасность
перегрева
1007.8 1004.3

 

Местоположение метеостанции Barranquilla (Колумбия): широта 10.88 долгота -74.78 высота над уровнем моря 30 м.

В архиве по умолчанию представлена погода в Barranquilla за последнюю неделю. Архивные данные за месяц целиком и за предыдущие месяцы, начиная с января 2011 года, Вы можете получить, выбрав интересующий диапазон дат из раскрывающегося списка и нажав кнопку "Ввод!".


*Определитесь, кто Вы:
робот инопланетянин человек

Внимание! Время в таблицах - всемирное. Для получения местного времени необходимо прибавить поправку, которая в Barranquilla равна -5 ч.

Смотрите также архив погоды в соседних городах и на ближайших метеорологических станциях:

Погода в Santa Marta (Колумбия) (66 км)
Погода в Cartagena (Колумбия) (93 км)
Погода в Valledupar (Колумбия) (175 км)
Погода в Riohacha (Колумбия) (214 км)
Погода в Monteria (Колумбия) (257 км)
Погода в Maracaibo - La Chinit (Венесуэла) (335 км)
Погода в Maracaibo - La Canada (Венесуэла) (344 км)
Погода в Apartado (Колумбия) (400 км)
Погода в Cucuta (Колумбия) (412 км)
Погода в San Antonio del Tachira (Венесуэла) (423 км)

Пояснения к столбцам:

Ветер - указаны скорость ветра в м/с - средняя за 10 мин, порывы в срок и между сроками (в фигурных скобках) и направление, откуда дует ветер: С - северный, СВ - северо-восточный, В - восточный, ЮВ - юго-восточный, Ю - южный, ЮЗ - юго-западный, З - западный, СЗ - северо-западный.
Видимость - горизонтальная дальность видимости в метрах или километрах. При видимости от 1 до 10 км при отсутствии осадков обычно наблюдается дымка, при ухудшении видимости до 1 км и менее - туман. В сухую погоду видимость может ухудшаться дымом, пылью или мглою.
Явления - указаны атмосферные явления, наблюдавшиеся в срок или в последний час перед сроком; фигурными скобками обозначены явления, наблюдавшиеся между сроками (за 1-3 часа до срока); квадратными скобками обозначены град или гололедные отложения с указанием их диаметра в мм.
Облачность - указаны через наклонную черту общая и нижняя облачность в баллах и высота нижней границы облаков в метрах; квадратными скобками обозначены формы облаков: Ci - перистые, Cs - перисто-слоистые, Cc - перисто-кучевые, Ac - высококучевые, As - высокослоистые, Sc - слоисто-кучевые, Ns - слоисто-дождевые, Cu - кучевые, Cb - кучево-дождевые. Подробнее классификацию облаков см. в Атласе облаков (PDF).
T - Температура воздуха - температура, измеренная на высоте 2 м над землей.
Td - Температура точки росы - температура, при понижении до которой содержащийся в воздухе водяной пар достигнет насыщения.
f - Относительная влажность воздуха - влажноcть воздуха, измеренная на высоте 2 м над землей.
Te - Эффективная температура - температура, которую ощущает одетый по сезону человек в тени. Характеристика душности погоды. При расчете учитывается влияние влажности воздуха и скорости ветра на теплоощущения человека.
Tes - Эффективная температура на солнце - температура, которую ощущает человек, с поправкой на солнечный нагрев. Характеристика знойности погоды. Зависит от высоты солнца над горизонтом, облачности и скорости ветра. Ночью, в пасмурную погоду, а также при ветре 12 м/с и более поправка равна нулю.
P - Атмосферное давление - приведенное к уровню моря атмосферное давление.
Po - Атмосферное давление - измеренное на уровне метеостанции атмосферное давление.
Tmin - Минимальная температура - минимум температуры воздуха на высоте 2 м над землей.
Tmax - Максимальная температура - максимум температуры воздуха на высоте 2 м над землей.
R - Количество осадков - Количество выпавших осадков за период времени, мм. При наведении курсора мыши на число - период времени, за который выпало указанное количество осадков.
R24 - Количество осадков - Количество выпавших осадков за 24 часа, мм.
S - Снежный покров - Высота снежного покрова, см. При наведении курсора мыши на число - состояние снежного покрова и степень покрытия местности в баллах.